Location: Siratepeler Tepesi
(39.1042°N, 32.0781°E)
Time: 05:40:10
(UTC+00:00)

YAOGAN 11 - Pass Details

Date: 11 April 2026
Orbit: 598 x 647 km, 98.4° (Epoch: 9 May)

Event Time Altitude Azimuth Distance (km) Brightness Sun altitude
Rises 18:30:49 0° 13° (NNE) 2,855 7.7 -23.3°
Reaches altitude 10° 18:32:59 10° 13° (NNE) 1,951 6.8 -23.6°
Enters shadow 18:36:52 75° 20° (NNE) 631 4.0 -24.2°
